Regional Weather Roundup
Issued by NWS

Home | Current Version | Previous Version | Graphics & Text | Print | Product List | Glossary Off
Versions: 1 2 3 4 5 6 7 8 9 10 11 12 13 14 15 16 17 18 19 20 21 22 23 24 25 26 27 28 29 30 31 32 33 34 35 36 37 38 39 40 41 42 43 44 45 46 47 48 49 50

000
ASUS44 KFWD 241403
RWRTX
NORTH TEXAS HOURLY WEATHER ROUNDUP
NATIONAL WEATHER SERVICE FORT WORTH TX
900 AM CDT SUN SEP 24 2017

NOTE: "FAIR" INDICATES FEW OR NO CLOUDS BELOW 12,000 FEET WITH NO
SIGNIFICANT WEATHER AND/OR OBSTRUCTIONS TO VISIBILITY.

TXZ118-119-241500-
DALLAS/FORT WORTH METROPLEX

CITY           SKY/WX    TMP DP  RH WIND       PRES   REMARKS
DFW AIRPORT    PTSUNNY   77  70  79 S9        29.92R
DALLAS LOVE    PTSUNNY   76  69  79 S7        29.93R
FTW MEACHAM    MOSUNNY   77  71  82 S10       29.92R
DAL-EXECUTIVE  PTSUNNY   75  70  84 VRB5      29.93R
FTW-ALLIANCE   PTSUNNY   76  70  82 S7        29.93R
FTW-NAS-JRB    MOSUNNY   77  69  76 S10       29.93R
FTW-SPINKS     MOSUNNY   75  70  83 S7        29.94R
ARLINGTON      CLOUDY    74  72  93 S6        29.94R
GRAND PRAIRIE  CLOUDY    75  70  83 S8        29.95R
ADDISON        SUNNY     77  68  73 S8        29.95R
MESQUITE       SUNNY     75  72  88 SE5       29.94R
LANCASTER      MOSUNNY   73  69  85 SE5       29.94R
$$

TXZ091>094-102>105-117-120-121-131>134-241500-
NORTH CENTRAL TEXAS

CITY           SKY/WX    TMP DP  RH WIND       PRES   REMARKS
SHRMAN/DENISON CLOUDY    75  69  80 SE7       29.96R
GAINESVILLE    SUNNY     74  69  84 SE6       29.96R
BOWIE          MOSUNNY   73  68  87 SE6       29.93R
BRIDGEPORT     MOSUNNY   73  69  87 S3        29.94R
DECATUR        MOSUNNY   74  69  84 S10       29.93R
DENTON         SUNNY     76  71  85 SE6       29.93R
MCKINNEY       CLOUDY    77  72  84 S9        29.94R
BONHAM         SUNNY     74  70  87 SE6       29.96R
ROCKWALL       CLOUDY    75  72  88 S6        29.94R
TERRELL        MOSUNNY   76  71  85 SE6       29.94R
WAXAHACHIE     PTSUNNY   72  71  97 S6        29.95R
CLEBURNE       MOSUNNY   75  73  94 S9        29.95R
GRANBURY       SUNNY     75  69  82 SE8       29.93S
$$

TXZ083>090-098>101-113>116-127>130-139>142-154-155-241500-
WESTERN NORTH TEXAS

CITY           SKY/WX    TMP DP  RH WIND       PRES   REMARKS
WICHITA FALLS  MOSUNNY   73  67  81 SE7       29.91R
WF-KICKAPOO    MOSUNNY   74  68  83 SE10      29.93S
VERNON         CLOUDY    75  63  66 S10       29.92R
ABILENE        PTSUNNY   73  68  84 S14       29.92R
ABILENE-DYESS  PTSUNNY   74  67  78 S16       29.90R
BRECKENRIDGE   SUNNY     75  67  77 S8        29.93R
CISCO          MOSUNNY   72  68  88 S10       29.94R
EASTLAND       MOSUNNY   72  68  89 S10       29.94R
RANGER         CLOUDY    71  69  93 S9        29.94R
MINERAL WELLS  SUNNY     73  69  87 SE8       29.91R
STEPHENVILLE   PTSUNNY   72  69  90 S6        29.96R
COMANCHE       CLOUDY    71  71 100 S7        29.94R
COLEMAN        CLOUDY    72  67  84 SE8       29.94R
$$

TXZ143>147-156>162-174-175-241500-
CENTRAL TEXAS

CITY           SKY/WX    TMP DP  RH WIND       PRES   REMARKS
WACO           MOSUNNY   75  72  90 S7        29.92R
WACO-TSTC      PTSUNNY   73  73 100 S5        29.92R FOG
WACO-MCGREGOR  CLOUDY    74  71  91 S6        29.92R
HILLSBORO      CLOUDY    73  71  92 S5        29.93R
CORSICANA      MOSUNNY   75  73  93 SE9       29.94R
MEXIA          PTSUNNY   72  71  96 S7        29.92S FOG
CAMERON        SUNNY     72  71  98 CALM      29.91R FOG
TEMPLE         CLOUDY    73  72  96 SE8       29.92R FOG
KILLEEN        NOT AVBL
FORT HOOD      CLOUDY    72  70  94 S8        29.89R
GATESVILLE     PTSUNNY   75  70  83 SE8       29.94R
HAMILTON       PTSUNNY   74  73  96 S10       29.94R
LAMPASAS       PTSUNNY   74  72  95 S3        29.92R
$$

TXZ095>097-106>112-122>126-135>138-148>153-164>167-241500-
EAST TEXAS

CITY           SKY/WX    TMP DP  RH WIND       PRES   REMARKS
PARIS          SUNNY     75  71  87 SE7       29.97R
SULPHUR SPRNGS SUNNY     77  71  83 SE5       29.98R
MOUNT PLEASANT SUNNY     74  72  92 SE3       29.97R
GILMER         SUNNY     74  71  88 CALM      29.96R
MINEOLA        SUNNY     73  72  94 E3        29.96R
TYLER          SUNNY     75  73  93 SE6       29.95R
LONGVIEW       SUNNY     77  74  90 CALM      29.94R FOG
MARSHALL       SUNNY     73  69  89 CALM      29.97S
ATHENS         CLOUDY    73  73 100 SE5       29.94R
PALESTINE      PTSUNNY   74  74 100 CALM      29.95R FOG
JACKSONVILLE   SUNNY     76  74  93 CALM      29.97R
HENDERSON      SUNNY     76  73  92 CALM      29.96R
CENTER         SUNNY     78  75  91 CALM      29.96R
NACOGDOCHES    SUNNY     76  73  91 E6        29.94S
LUFKIN         SUNNY     75  73  93 E7        29.94R
$$

SUPPLEMENTAL OBSERVATIONS (NWS FORT WORTH AREA)

CITY           SKY/WX    TMP DP  RH WIND       PRES   REMARKS
$$

SUPPLEMENTAL OBSERVATIONS (NWS NORMAN AREA)

CITY           SKY/WX    TMP DP  RH WIND       PRES   REMARKS
GOODLETT         N/A     72  64  76 S6        29.92R
ODELL            N/A     74  67  78 SE15      29.92R
CROWELL          N/A     75  66  74 S16       29.92R
KNOX CITY        N/A     75  64  68 S17       29.91R
SEYMOUR          N/A     74  65  74 S15       29.92R
$$

SUPPLEMENTAL OBSERVATIONS (NWS SAN ANGELO AREA)

CITY           SKY/WX    TMP DP  RH WIND       PRES   REMARKS
HASKELL          N/A     74  64  70 S13       29.92R
THROCKMORTON     N/A     74  68  81 S14       29.93R
STAMFORD         N/A     74  67  78 S14       29.92R
CLYDE            N/A     71  67  87 S17G23    29.95R
$$

SUPPLEMENTAL OBSERVATIONS (NWS SHREVEPORT AREA)

CITY           SKY/WX    TMP DP  RH WIND       PRES   REMARKS
$$

SUPPLEMENTAL OBSERVATIONS ARE A COLLECTION OF AUTOMATED INSTRUMENTS
THAT ARE MAINTAINED BY A VARIETY OF FEDERAL AND STATE AGENCIES.
CERTAIN ELEMENTS...SUCH AS HUMIDITY VALUES AND SUSTAINED WIND
SPEEDS...MAY BE APPROXIMATED.





USA.gov is the U.S. government's official web portal to all federal, state and local government web resources and services.